WD9EKA Weather Reports


Display with metric or nautical units.
time (UTC)temp
F
wind
direction
speed
MPH
gust
MPH
rain 1hr
in
rain 24hr
in
rain mn
in
humidity
%
barometer
mb
20260903225908 92 252 0.0 0.0 0.00 0.00 0.00 67 1008.4
20260903225348 93 252 0.0 0.0 0.00 0.00 0.00 66 1008.2
20260903224828 93 252 0.0 0.0 0.00 0.00 0.00 66 1008.3
20260903224308 93 252 0.0 1.0 0.00 0.00 0.00 66 1008.5
20260903223748 94 252 0.0 1.0 0.00 0.00 0.00 64 1008.2
20260903223233 95 251 0.0 1.0 0.00 0.00 0.00 62 1008.4
20260903222135 97 252 0.0 1.0 0.00 0.00 0.00 60 1008.5
20260903221600 98 226 0.0 1.0 0.00 0.00 0.00 51 1008.4
20260903221033 98 213 0.0 0.0 0.00 0.00 0.00 56 1008.4
20260903220516 97 212 0.0 1.0 0.00 0.00 0.00 54 1008.2
20260903215956 97 262 0.0 0.0 0.00 0.00 0.00 58 1008.3
20260903215433 98 262 0.0 0.0 0.00 0.00 0.00 54 1008.3
20260903214916 97 262 0.0 0.0 0.00 0.00 0.00 55 1008.3
20260903214356 97 260 1.0 2.0 0.00 0.00 0.00 51 1008.5
20260903213832 97 213 3.0 4.0 0.00 0.00 0.00 51 1008.3
20260903213316 96 200 2.0 3.0 0.00 0.00 0.00 51 1008.3
20260903212756 97 220 2.0 2.0 0.00 0.00 0.00 52 1008.2
20260903212233 98 262 3.0 4.0 0.00 0.00 0.00 52 1008.6
20260903211716 97 238 2.0 2.0 0.00 0.00 0.00 54 1008.6
20260903211156 96 294 2.0 3.0 0.00 0.00 0.00 52 1008.7
20260903210633 97 252 1.0 2.0 0.00 0.00 0.00 55 1008.4
20260903210116 97 189 2.0 3.0 0.00 0.00 0.00 53 1008.5
20260903205556 97 258 3.0 3.0 0.00 0.00 0.00 52 1008.6
20260903205033 96 275 3.0 4.0 0.00 0.00 0.00 52 1008.6
20260903204516 97 279 4.0 4.0 0.00 0.00 0.00 54 1009.0
20260903203956 96 213 2.0 2.0 0.00 0.00 0.00 53 1008.9
20260903203433 97 264 1.0 2.0 0.00 0.00 0.00 54 1008.9
20260903202833 96 281 3.0 3.0 0.00 0.00 0.00 56 1008.8
20260903202233 97 273 3.0 4.0 0.00 0.00 0.00 52 1009.0
20260903201716 97 176 0.0 0.0 0.00 0.00 0.00 54 1008.9
20260903200533 96 239 3.0 5.0 0.00 0.00 0.00 56 1008.9
20260903195933 96 268 2.0 3.0 0.00 0.00 0.00 56 1009.3
20260903195333 97 236 1.0 3.0 0.00 0.00 0.00 56 1009.4
20260903194828 96 227 1.0 2.0 0.00 0.00 0.00 55 1009.3
20260903194308 96 287 1.0 2.0 0.00 0.00 0.00 54 1009.4
20260903193748 96 303 4.0 4.0 0.00 0.00 0.00 55 1009.6
20260903193228 96 235 4.0 5.0 0.00 0.00 0.00 55 1009.5
20260903192708 97 194 2.0 4.0 0.00 0.00 0.00 55 1009.8
20260903192148 96 278 1.0 2.0 0.00 0.00 0.00 54 1009.7
20260903191532 96 247 2.0 2.0 0.00 0.00 0.00 54 1009.8
20260903190333 95 291 2.0 3.0 0.00 0.00 0.00 57 1009.9
20260903185732 95 266 2.0 3.0 0.00 0.00 0.00 58 1010.1
20260903185212 95 267 4.0 5.0 0.00 0.00 0.00 57 1010.1
20260903184653 95 237 4.0 4.0 0.00 0.00 0.00 57 1010.1
20260903184132 95 272 1.0 2.0 0.00 0.00 0.00 58 1010.1
20260903183612 95 287 2.0 3.0 0.00 0.00 0.00 58 1010.0
20260903183052 95 299 0.0 1.0 0.00 0.00 0.00 62 1010.1
20260903182532 94 285 2.0 4.0 0.00 0.00 0.00 59 1010.1
20260903182012 94 287 4.0 4.0 0.00 0.00 0.00 57 1010.1
20260903181452 94 272 2.0 3.0 0.00 0.00 0.00 61 1010.3
20260903180932 95 278 2.0 3.0 0.00 0.00 0.00 59 1010.2
20260903180412 94 264 2.0 3.0 0.00 0.00 0.00 59 1010.3
20260903175852 95 240 1.0 2.0 0.00 0.00 0.00 59 1010.3
20260903175332 95 246 4.0 4.0 0.00 0.00 0.00 58 1010.4
20260903174812 95 279 2.0 3.0 0.00 0.00 0.00 58 1010.4
20260903173732 94 248 0.0 1.0 0.00 0.00 0.00 60 1010.5
20260903173212 94 214 3.0 4.0 0.00 0.00 0.00 59 1010.7
20260903172633 94 209 2.0 3.0 0.00 0.00 0.00 61 1010.6
20260903172116 94 192 3.0 4.0 0.00 0.00 0.00 61 1010.4
20260903171556 93 267 2.0 3.0 0.00 0.00 0.00 60 1010.6
20260903171033 93 263 3.0 4.0 0.00 0.00 0.00 62 1010.5
20260903170516 93 299 4.0 5.0 0.00 0.00 0.00 61 1010.7
20260903165420 93 249 4.0 5.0 0.00 0.00 0.00 61 1010.9
20260903164900 93 272 4.0 5.0 0.00 0.00 0.00 60 1010.9
20260903163820 92 200 4.0 5.0 0.00 0.00 0.00 63 1011.0
20260903163300 93 248 3.0 5.0 0.00 0.00 0.00 62 1011.4
20260903162740 92 234 2.0 3.0 0.00 0.00 0.00 62 1011.0
20260903162233 92 273 4.0 5.0 0.00 0.00 0.00 64 1011.3
20260903161633 92 252 3.0 5.0 0.00 0.00 0.00 64 1011.1
20260903161033 91 244 6.0 6.0 0.00 0.00 0.00 64 1011.2
20260903160432 91 245 3.0 4.0 0.00 0.00 0.00 65 1011.3
20260903155833 91 245 4.0 4.0 0.00 0.00 0.00 67 1011.2
20260903154632 91 209 2.0 3.0 0.00 0.00 0.00 66 1011.4
20260903154033 90 259 4.0 5.0 0.00 0.00 0.00 67 1011.3
20260903153433 90 202 4.0 5.0 0.00 0.00 0.00 66 1011.3
20260903152833 89 266 3.0 3.0 0.00 0.00 0.00 70 1011.3
20260903152233 90 329 0.0 5.0 0.00 0.00 0.00 68 1011.2
20260903151633 90 226 0.0 0.0 0.00 0.00 0.00 69 1011.1
20260903151032 90 264 0.0 0.0 0.00 0.00 0.00 69 1011.1
20260903150433 89 216 0.0 0.0 0.00 0.00 0.00 71 1011.4
20260903145233 89 267 0.0 0.0 0.00 0.00 0.00 70 1011.1
20260903144633 88 216 0.0 0.0 0.00 0.00 0.00 72 1011.3
20260903144033 88 227 0.0 0.0 0.00 0.00 0.00 72 1010.9
20260903143432 87 228 0.0 0.0 0.00 0.00 0.00 72 1011.1
20260903142833 87 220 0.0 0.0 0.00 0.00 0.00 73 1011.0
20260903142233 86 199 0.0 0.0 0.00 0.00 0.00 74 1011.1
20260903141633 86 262 0.0 0.0 0.00 0.00 0.00 75 1011.2
20260903141033 86 261 0.0 0.0 0.00 0.00 0.00 76 1011.1
20260903140433 86 198 0.0 0.0 0.00 0.00 0.00 75 1011.1
20260903135833 85 163 0.0 0.0 0.00 0.00 0.00 77 1011.2
20260903135317 84 203 0.0 0.0 0.00 0.00 0.00 78 1011.1
20260903134237 83 191 0.0 0.0 0.00 0.00 0.00 78 1011.1
20260903133717 82 200 0.0 0.0 0.00 0.00 0.00 81 1011.2
20260903133156 82 196 0.0 0.0 0.00 0.00 0.00 82 1011.1
20260903132636 82 214 0.0 0.0 0.00 0.00 0.00 84 1011.3
20260903132117 81 215 0.0 0.0 0.00 0.00 0.00 84 1011.4
20260903131557 80 214 0.0 0.0 0.00 0.00 0.00 85 1011.4
20260903130516 79 220 0.0 0.0 0.00 0.00 0.00 88 1011.4
20260903125956 78 220 0.0 0.0 0.00 0.00 0.00 91 1011.3
20260903124916 75 220 0.0 0.0 0.00 0.00 0.00 98 1011.2
20260903124356 74 220 0.0 0.0 0.00 0.00 0.00 99 1011.6
20260903123837 74 220 0.0 0.0 0.00 0.00 0.00 99 1011.6
20260903123317 73 220 0.0 0.0 0.00 0.00 0.00 99 1011.5
20260903122757 73 220 0.0 0.0 0.00 0.00 0.00 99 1011.4
20260903122220 72 220 0.0 0.0 0.00 0.00 0.00 99 1011.6
20260903121701 72 220 0.0 0.0 0.00 0.00 0.00 99 1011.5
20260903121142 71 220 0.0 0.0 0.00 0.00 0.00 99 1011.4
20260903120621 71 220 0.0 0.0 0.00 0.00 0.00 99 1011.5
20260903120101 70 220 0.0 0.0 0.00 0.00 0.00 99 1011.4
20260903115021 70 220 0.0 0.0 0.00 0.00 0.00 99 1011.4
20260903114501 70 220 0.0 0.0 0.00 0.00 0.00 99 1011.3
20260903113941 70 220 0.0 0.0 0.00 0.00 0.00 99 1011.0
20260903112901 70 220 0.0 0.0 0.00 0.00 0.00 99 1011.4
20260903112341 70 220 0.0 0.0 0.00 0.00 0.00 99 1011.4
20260903111301 70 220 0.0 0.0 0.00 0.00 0.00 99 1011.0
20260903110221 70 220 0.0 0.0 0.00 0.00 0.00 99 1011.1
20260903105701 70 220 0.0 0.0 0.00 0.00 0.00 99 1011.0
20260903105141 71 220 0.0 0.0 0.00 0.00 0.00 99 1010.8
20260903104621 71 220 0.0 0.0 0.00 0.00 0.00 99 1010.8
20260903103541 70 220 0.0 0.0 0.00 0.00 0.00 99 1010.8
20260903103021 70 220 0.0 0.0 0.00 0.00 0.00 99 1011.0
20260903102501 70 220 0.0 0.0 0.00 0.00 0.00 99 1011.0
20260903101941 70 220 0.0 0.0 0.00 0.00 0.00 99 1010.6
20260903101421 70 220 0.0 0.0 0.00 0.00 0.00 99 1010.7
20260903100901 70 220 0.0 0.0 0.00 0.00 0.00 99 1010.8
20260903100341 70 220 0.0 0.0 0.00 0.00 0.00 99 1010.8
20260903095821 70 220 0.0 0.0 0.00 0.00 0.00 99 1010.9
20260903094741 70 220 0.0 0.0 0.00 0.00 0.00 99 1010.7
20260903094221 70 220 0.0 0.0 0.00 0.00 0.00 99 1010.9
20260903093141 71 220 0.0 0.0 0.00 0.00 0.00 99 1010.7
20260903092621 71 220 0.0 0.0 0.00 0.00 0.00 99 1010.9
20260903092101 71 220 0.0 0.0 0.00 0.00 0.00 99 1010.9
20260903091541 71 220 0.0 0.0 0.00 0.00 0.00 99 1010.8
20260903091021 71 220 0.0 0.0 0.00 0.00 0.00 99 1010.7
20260903090501 71 220 0.0 0.0 0.00 0.00 0.00 99 1010.7
20260903085941 71 220 0.0 0.0 0.00 0.00 0.00 99 1010.8
20260903085421 71 220 0.0 0.0 0.00 0.00 0.00 98 1010.8
20260903084901 72 220 0.0 0.0 0.00 0.00 0.00 98 1010.7
20260903083833 72 220 0.0 0.0 0.00 0.00 0.00 98 1010.6
20260903083233 72 220 0.0 0.0 0.00 0.00 0.00 98 1010.6
20260903082633 72 220 0.0 0.0 0.00 0.00 0.00 97 1010.8
20260903082033 72 220 0.0 0.0 0.00 0.00 0.00 97 1010.7
20260903081433 73 220 0.0 0.0 0.00 0.00 0.00 96 1010.5
20260903080832 73 220 0.0 0.0 0.00 0.00 0.00 96 1010.9
20260903080233 73 220 0.0 0.0 0.00 0.00 0.00 96 1010.5
20260903075633 73 220 0.0 0.0 0.00 0.00 0.00 96 1010.6
20260903075033 73 220 0.0 0.0 0.00 0.00 0.00 96 1010.7
20260903074433 73 220 0.0 0.0 0.00 0.00 0.00 96 1010.4
20260903073925 73 220 0.0 0.0 0.00 0.00 0.00 96 1010.5
20260903073406 73 220 0.0 0.0 0.00 0.00 0.00 95 1010.4
20260903072835 73 220 0.0 0.0 0.00 0.00 0.00 96 1010.6
20260903072333 73 220 0.0 0.0 0.00 0.00 0.00 96 1010.6
20260903071733 73 220 0.0 0.0 0.00 0.00 0.00 97 1010.4
20260903071133 73 220 0.0 0.0 0.00 0.00 0.00 97 1010.5
20260903070533 73 220 0.0 0.0 0.00 0.00 0.00 97 1010.6
20260903065933 73 220 0.0 0.0 0.00 0.00 0.00 97 1010.4
20260903065333 73 220 0.0 0.0 0.00 0.00 0.00 97 1010.5
20260903064733 73 220 0.0 0.0 0.00 0.00 0.00 96 1010.7
20260903064133 73 220 0.0 0.0 0.00 0.00 0.00 96 1010.7
20260903063533 73 220 0.0 0.0 0.00 0.00 0.00 96 1010.6
20260903063021 73 220 0.0 0.0 0.00 0.00 0.00 96 1010.4
20260903062502 73 220 0.0 0.0 0.00 0.00 0.00 96 1010.6
20260903061941 73 220 0.0 0.0 0.00 0.00 0.00 95 1010.5
20260903061433 74 220 0.0 0.0 0.00 0.00 0.00 95 1010.6
20260903060341 74 220 0.0 0.0 0.00 0.00 0.00 94 1010.6
20260903055822 74 220 0.0 0.0 0.00 0.00 0.00 93 1010.7
20260903055306 75 220 0.0 0.0 0.00 0.00 0.00 92 1010.6
20260903054742 75 220 0.0 0.0 0.00 0.00 0.00 91 1010.5
20260903054222 76 220 0.0 0.0 0.00 0.00 0.00 90 1010.7
20260903053702 76 220 0.0 0.0 0.00 0.00 0.00 89 1010.6
20260903053141 77 220 0.0 0.0 0.00 0.00 0.00 87 1010.5
20260903052621 77 220 0.0 0.0 0.00 0.00 0.00 86 1010.6
20260903052102 78 220 0.0 0.0 0.00 0.00 0.00 85 1010.4
20260903051542 78 220 0.0 0.0 0.00 0.00 0.00 84 1010.4
20260903051022 78 220 0.0 0.0 0.00 0.00 0.00 84 1010.6
20260903050502 78 220 0.0 0.0 0.00 0.00 0.00 85 1010.4
20260903045422 78 220 0.0 0.0 0.00 0.00 0.00 84 1010.3
20260903044902 78 220 0.0 0.0 0.00 0.00 0.00 84 1010.1
20260903044342 78 220 0.0 0.0 0.00 0.00 0.00 85 1010.2
20260903043822 77 220 0.0 0.0 0.00 0.00 0.00 87 1010.2
20260903043302 77 220 0.0 0.0 0.00 0.00 0.00 88 1010.3
20260903042742 78 220 0.0 0.0 0.00 0.00 0.00 87 1010.3
20260903042222 78 220 0.0 0.0 0.00 0.00 0.00 86 1010.1
20260903041702 78 220 0.0 0.0 0.00 0.00 0.00 85 1010.0
20260903041134 79 220 0.0 0.0 0.00 0.00 0.00 85 1010.0
20260903040622 79 219 0.0 0.0 0.00 0.00 0.00 84 1010.2
20260903035533 79 247 0.0 0.0 0.00 0.00 0.00 84 1010.3
20260903035022 80 247 0.0 0.0 0.00 0.00 0.00 83 1010.0
20260903034503 80 247 0.0 0.0 0.00 0.00 0.00 82 1009.9
20260903033934 80 247 0.0 0.0 0.00 0.00 0.00 82 1010.3
20260903033422 80 227 0.0 0.0 0.00 0.00 0.00 81 1009.9
20260903032902 80 227 0.0 0.0 0.00 0.00 0.00 81 1010.2
20260903032333 80 221 0.0 0.0 0.00 0.00 0.00 83 1010.0
20260903031822 80 221 0.0 0.0 0.00 0.00 0.00 84 1010.0
20260903031302 79 221 0.0 0.0 0.00 0.00 0.00 87 1009.8
20260903030733 78 221 0.0 0.0 0.00 0.00 0.00 90 1010.0
20260903030222 76 221 0.0 0.0 0.00 0.00 0.00 97 1010.1
20260903025702 76 220 0.0 0.0 0.00 0.00 0.00 99 1010.1
20260903025133 76 220 0.0 0.0 0.00 0.00 0.00 99 1010.1
20260903024622 76 220 0.0 0.0 0.00 0.00 0.00 99 1010.1
20260903024102 77 220 0.0 0.0 0.00 0.00 0.00 99 1010.3
20260903023533 77 220 0.0 0.0 0.00 0.00 0.00 99 1010.0
20260903022503 77 220 0.0 0.0 0.00 0.00 0.00 99 1010.1
20260903021933 77 220 0.0 0.0 0.00 0.00 0.00 99 1010.1
20260903021422 77 220 0.0 0.0 0.00 0.00 0.00 98 1010.2
20260903020902 77 220 0.0 0.0 0.00 0.00 0.00 98 1010.0
20260903020333 77 220 0.0 0.0 0.00 0.00 0.00 98 1010.0
20260903015822 78 220 0.0 0.0 0.00 0.00 0.00 98 1010.1
20260903014733 78 220 0.0 0.0 0.00 0.00 0.00 98 1009.9
20260903014222 78 220 0.0 0.0 0.00 0.00 0.00 98 1009.7
20260903013702 79 220 0.0 0.0 0.00 0.00 0.00 98 1009.8
20260903013133 79 220 0.0 0.0 0.00 0.00 0.00 97 1009.5
20260903012623 79 220 0.0 0.0 0.00 0.00 0.00 97 1009.5
20260903012102 79 220 0.0 0.0 0.00 0.00 0.00 96 1009.3
20260903011533 79 220 0.0 0.0 0.00 0.00 0.00 96 1009.5
20260903011022 79 220 0.0 0.0 0.00 0.00 0.00 96 1009.5
20260903005933 80 220 0.0 0.0 0.00 0.00 0.00 95 1009.3
20260903005422 80 220 0.0 0.0 0.00 0.00 0.00 94 1009.3
20260903004903 81 220 0.0 0.0 0.00 0.00 0.00 93 1009.3
20260903004333 81 220 0.0 0.0 0.00 0.00 0.00 91 1009.3
20260903003822 81 220 0.0 0.0 0.00 0.00 0.00 91 1009.3
20260903003303 82 220 0.0 0.0 0.00 0.00 0.00 90 1009.2
20260903002733 82 220 0.0 0.0 0.00 0.00 0.00 89 1009.2
20260903002222 83 220 0.0 0.0 0.00 0.00 0.00 86 1009.3
20260903001639 84 220 0.0 0.0 0.00 0.00 0.00 84 1009.2
20260903001127 84 220 0.0 0.0 0.00 0.00 0.00 84 1009.3
20260903000606 85 220 0.0 0.0 0.00 0.00 0.00 82 1009.4
20260903000039 86 220 0.0 0.0 0.00 0.00 0.00 81 1009.2
20260902235526 88 220 0.0 0.0 0.00 0.00 0.00 78 1009.5
20260902235007 89 220 0.0 0.0 0.00 0.00 0.00 75 1009.5
20260902234446 90 220 0.0 0.0 0.00 0.00 0.00 73 1009.5
20260902233926 92 220 0.0 0.0 0.00 0.00 0.00 70 1009.4
20260902233406 92 220 0.0 0.0 0.00 0.00 0.00 72 1009.6
20260902232846 93 220 0.0 0.0 0.00 0.00 0.00 69 1009.4
20260902232310 93 219 0.0 0.0 0.00 0.00 0.00 69 1009.3
20260902231750 93 219 0.0 0.0 0.00 0.00 0.00 68 1009.4
20260902231231 93 219 0.0 0.0 0.00 0.00 0.00 67 1009.5
20260902230710 93 219 0.0 0.0 0.00 0.00 0.00 66 1009.4
20260902230150 93 219 0.0 0.0 0.00 0.00 0.00 66 1009.4